EW5095 Weather Reports


Display with metric or nautical units.
time (UTC)temp
F
wind
direction
speed
MPH
gust
MPH
rain 1hr
in
rain 24hr
in
rain mn
in
humidity
%
barometer
mb
20260906213504 99 101 7.0 13.0 0.00 0.00 0.00 31 1009.5
20260906213005 98 173 8.0 13.0 0.00 0.00 0.00 31 1009.5
20260906212504 98 159 6.0 13.0 0.00 0.00 0.00 32 1009.6
20260906211505 97 205 7.0 14.0 0.00 0.00 0.00 32 1009.9
20260906211004 97 193 7.0 15.0 0.00 0.00 0.00 31 1010.1
20260906210505 98 158 8.0 15.0 0.00 0.00 0.00 31 1010.2
20260906210004 98 124 9.0 15.0 0.00 0.00 0.00 31 1010.3
20260906204505 98 146 8.0 13.0 0.00 0.00 0.00 32 1010.5
20260906204004 98 131 7.0 13.0 0.00 0.00 0.00 32 1010.6
20260906203504 98 159 7.0 14.0 0.00 0.00 0.00 32 1010.6
20260906203005 98 183 7.0 14.0 0.00 0.00 0.00 32 1010.6
20260906202505 99 129 6.0 14.0 0.00 0.00 0.00 32 1010.6
20260906202005 99 103 7.0 14.0 0.00 0.00 0.00 32 1010.8
20260906201505 98 219 7.0 15.0 0.00 0.00 0.00 33 1010.7
20260906201004 97 186 7.0 15.0 0.00 0.00 0.00 34 1010.9
20260906200504 96 172 7.0 14.0 0.00 0.00 0.00 34 1011.0
20260906200004 95 158 8.0 14.0 0.00 0.00 0.00 35 1011.0
20260906195504 95 179 7.0 14.0 0.00 0.00 0.00 36 1011.1
20260906195004 94 102 5.0 14.0 0.00 0.00 0.00 36 1011.0
20260906193505 95 145 9.0 16.0 0.00 0.00 0.00 36 1011.4
20260906193005 95 106 8.0 14.0 0.00 0.00 0.00 36 1011.4
20260906192504 95 123 7.0 16.0 0.00 0.00 0.00 36 1011.4
20260906192004 95 116 5.0 16.0 0.00 0.00 0.00 35 1011.5
20260906191005 96 145 9.0 16.0 0.00 0.00 0.00 35 1011.7
20260906190505 96 122 7.0 16.0 0.00 0.00 0.00 35 1011.7
20260906190004 96 197 7.0 14.0 0.00 0.00 0.00 34 1011.8
20260906185504 96 130 8.0 16.0 0.00 0.00 0.00 35 1012.0
20260906185005 96 156 7.0 16.0 0.00 0.00 0.00 35 1011.9
20260906184504 95 187 6.0 12.0 0.00 0.00 0.00 36 1012.0
20260906184004 95 106 6.0 12.0 0.00 0.00 0.00 37 1012.1
20260906183505 95 162 7.0 13.0 0.00 0.00 0.00 36 1012.3
20260906182004 96 148 6.0 15.0 0.00 0.00 0.00 36 1012.5
20260906181504 96 128 7.0 18.0 0.00 0.00 0.00 35 1012.5
20260906181004 96 151 9.0 18.0 0.00 0.00 0.00 35 1012.5
20260906180504 96 135 10.0 16.0 0.00 0.00 0.00 36 1012.5
20260906180004 96 153 7.0 16.0 0.00 0.00 0.00 35 1012.6
20260906175505 96 123 6.0 15.0 0.00 0.00 0.00 35 1012.7
20260906175004 96 235 7.0 16.0 0.00 0.00 0.00 36 1012.6
20260906174504 96 181 7.0 16.0 0.00 0.00 0.00 36 1012.8
20260906174005 95 138 7.0 16.0 0.00 0.00 0.00 36 1012.7
20260906173004 95 186 7.0 16.0 0.00 0.00 0.00 37 1012.8
20260906172504 94 187 5.0 12.0 0.00 0.00 0.00 38 1012.9
20260906172005 94 131 6.0 13.0 0.00 0.00 0.00 38 1012.9
20260906171504 94 152 7.0 14.0 0.00 0.00 0.00 38 1013.0
20260906171004 94 151 7.0 14.0 0.00 0.00 0.00 38 1013.1
20260906170504 94 136 6.0 15.0 0.00 0.00 0.00 38 1013.1
20260906170005 93 115 7.0 15.0 0.00 0.00 0.00 38 1013.1
20260906165504 93 221 6.0 15.0 0.00 0.00 0.00 38 1013.2
20260906165004 93 155 6.0 17.0 0.00 0.00 0.00 39 1013.1
20260906164004 93 104 7.0 15.0 0.00 0.00 0.00 40 1013.3
20260906163504 93 176 6.0 13.0 0.00 0.00 0.00 40 1013.1
20260906163004 93 105 5.0 12.0 0.00 0.00 0.00 42 1013.2
20260906162504 93 119 3.0 12.0 0.00 0.00 0.00 41 1013.2
20260906162004 92 65 3.0 9.0 0.00 0.00 0.00 42 1013.3
20260906161504 92 174 3.0 9.0 0.00 0.00 0.00 42 1013.2
20260906161004 92 161 3.0 9.0 0.00 0.00 0.00 42 1013.2
20260906160504 92 203 3.0 9.0 0.00 0.00 0.00 44 1013.2
20260906160004 91 204 3.0 9.0 0.00 0.00 0.00 44 1013.2
20260906155504 91 72 2.0 5.0 0.00 0.00 0.00 45 1013.2
20260906155005 91 328 2.0 5.0 0.00 0.00 0.00 45 1013.1
20260906154504 90 88 3.0 6.0 0.00 0.00 0.00 45 1013.2
20260906154005 90 129 3.0 7.0 0.00 0.00 0.00 47 1013.2
20260906153504 90 181 3.0 7.0 0.00 0.00 0.00 47 1013.2
20260906153004 89 231 3.0 8.0 0.00 0.00 0.00 47 1013.2
20260906152504 89 177 2.0 8.0 0.00 0.00 0.00 48 1013.1
20260906151504 89 243 3.0 7.0 0.00 0.00 0.00 49 1013.1
20260906151004 88 188 2.0 5.0 0.00 0.00 0.00 49 1013.1
20260906150504 88 264 3.0 6.0 0.00 0.00 0.00 50 1013.1
20260906150004 87 198 2.0 6.0 0.00 0.00 0.00 51 1013.1
20260906145504 87 264 2.0 6.0 0.00 0.00 0.00 52 1013.1
20260906145004 86 250 2.0 6.0 0.00 0.00 0.00 53 1013.0
20260906144504 86 256 1.0 6.0 0.00 0.00 0.00 53 1013.0
20260906143004 84 173 2.0 5.0 0.00 0.00 0.00 55 1013.1
20260906142504 84 170 3.0 7.0 0.00 0.00 0.00 56 1013.0
20260906141504 83 193 4.0 10.0 0.00 0.00 0.00 57 1013.2
20260906141004 82 188 3.0 9.0 0.00 0.00 0.00 58 1013.2
20260906135504 80 207 2.0 3.0 0.00 0.00 0.00 63 1013.0
20260906135004 79 182 2.0 3.0 0.00 0.00 0.00 64 1013.1
20260906134003 77 130 2.0 3.0 0.00 0.00 0.00 67 1013.0
20260906133004 76 84 2.0 3.0 0.00 0.00 0.00 68 1013.0
20260906132504 75 84 2.0 3.0 0.00 0.00 0.00 68 1012.9
20260906132004 75 84 2.0 3.0 0.00 0.00 0.00 68 1012.9
20260906131504 75 84 2.0 3.0 0.00 0.00 0.00 68 1012.8
20260906130504 74 84 3.0 3.0 0.00 0.00 0.00 68 1012.6
20260906125504 74 84 3.0 3.0 0.00 0.00 0.00 67 1012.7
20260906124504 74 57 2.0 3.0 0.00 0.00 0.00 66 1012.5
20260906124003 75 57 1.0 3.0 0.00 0.00 0.00 66 1012.5
20260906123506 75 45 0.0 3.0 0.00 0.00 0.00 65 1012.3
20260906123007 75 355 0.0 0.0 0.00 0.00 0.00 65 1012.3
20260906122506 75 355 0.0 0.0 0.00 0.00 0.00 65 1012.3
20260906122006 75 355 0.0 0.0 0.00 0.00 0.00 65 1012.3
20260906121006 75 355 0.0 0.0 0.00 0.00 0.00 65 1012.3
20260906120506 75 355 0.0 0.0 0.00 0.00 0.00 65 1012.1
20260906120006 76 355 0.0 0.0 0.00 0.00 0.00 64 1012.1
20260906115506 76 355 0.0 0.0 0.00 0.00 0.00 64 1012.0
20260906115006 76 355 0.0 0.0 0.00 0.00 0.00 64 1012.0
20260906114506 76 355 0.0 0.0 0.00 0.00 0.00 64 1012.0
20260906114007 76 355 0.0 1.0 0.00 0.00 0.00 64 1011.9
20260906113506 76 355 1.0 3.0 0.00 0.00 0.00 64 1012.0
20260906113006 76 355 2.0 3.0 0.00 0.00 0.00 64 1011.9
20260906112506 76 355 1.0 3.0 0.00 0.00 0.00 63 1012.0
20260906111006 77 234 1.0 3.0 0.00 0.00 0.00 61 1011.9
20260906110506 77 234 2.0 3.0 0.00 0.00 0.00 61 1011.9
20260906110005 77 234 2.0 3.0 0.00 0.00 0.00 61 1011.9
20260906105506 77 234 1.0 3.0 0.00 0.00 0.00 60 1011.8
20260906105006 77 234 1.0 3.0 0.00 0.00 0.00 59 1011.8
20260906104506 78 234 2.0 3.0 0.00 0.00 0.00 59 1011.6
20260906104005 78 234 2.0 6.0 0.00 0.00 0.00 59 1011.5
20260906103506 78 232 3.0 6.0 0.00 0.00 0.00 58 1011.5
20260906103006 78 205 2.0 5.0 0.00 0.00 0.00 58 1011.5
20260906102006 79 248 2.0 3.0 0.00 0.00 0.00 57 1011.4
20260906101506 79 248 2.0 3.0 0.00 0.00 0.00 57 1011.3
20260906101006 80 248 2.0 3.0 0.00 0.00 0.00 57 1011.4
20260906100506 80 248 2.0 3.0 0.00 0.00 0.00 56 1011.4
20260906100006 80 276 0.0 3.0 0.00 0.00 0.00 57 1011.3
20260906095506 80 172 0.0 2.0 0.00 0.00 0.00 56 1011.2
20260906095006 81 172 1.0 3.0 0.00 0.00 0.00 56 1011.1
20260906094505 81 172 2.0 3.0 0.00 0.00 0.00 56 1011.1
20260906093506 81 254 2.0 7.0 0.00 0.00 0.00 56 1011.2
20260906093006 81 247 3.0 7.0 0.00 0.00 0.00 55 1011.2
20260906092506 81 218 3.0 7.0 0.00 0.00 0.00 56 1011.2
20260906091005 81 231 6.0 12.0 0.00 0.00 0.00 56 1011.0
20260906090006 81 220 8.0 14.0 0.00 0.00 0.00 56 1010.9
20260906085506 81 198 7.0 14.0 0.00 0.00 0.00 56 1011.0
20260906085006 81 217 6.0 14.0 0.00 0.00 0.00 56 1011.0
20260906084506 81 210 3.0 12.0 0.00 0.00 0.00 56 1010.9
20260906084006 81 209 3.0 7.0 0.00 0.00 0.00 55 1010.9
20260906083506 81 206 3.0 5.0 0.00 0.00 0.00 55 1011.0
20260906083006 81 252 3.0 6.0 0.00 0.00 0.00 53 1011.0
20260906082505 82 242 2.0 6.0 0.00 0.00 0.00 53 1011.0
20260906082006 82 284 1.0 5.0 0.00 0.00 0.00 53 1011.0
20260906081506 82 311 1.0 3.0 0.00 0.00 0.00 52 1011.0
20260906080506 82 186 0.0 3.0 0.00 0.00 0.00 51 1011.0
20260906080006 83 186 1.0 5.0 0.00 0.00 0.00 51 1011.1
20260906075506 83 186 3.0 10.0 0.00 0.00 0.00 51 1011.2
20260906075006 83 179 5.0 12.0 0.00 0.00 0.00 51 1011.2
20260906073005 83 171 6.0 13.0 0.00 0.00 0.00 50 1011.3
20260906072506 83 172 6.0 12.0 0.00 0.00 0.00 49 1011.2
20260906071505 84 180 5.0 12.0 0.00 0.00 0.00 48 1011.3
20260906071006 84 177 5.0 10.0 0.00 0.00 0.00 48 1011.2
20260906070005 84 166 6.0 12.0 0.00 0.00 0.00 47 1011.3
20260906065506 84 167 6.0 12.0 0.00 0.00 0.00 47 1011.4
20260906064506 85 171 6.0 12.0 0.00 0.00 0.00 46 1011.5
20260906064006 85 172 6.0 12.0 0.00 0.00 0.00 46 1011.4
20260906063506 85 191 6.0 12.0 0.00 0.00 0.00 46 1011.5
20260906063006 85 181 6.0 12.0 0.00 0.00 0.00 46 1011.5
20260906062505 85 180 6.0 12.0 0.00 0.00 0.00 45 1011.5
20260906062006 85 167 6.0 15.0 0.00 0.00 0.00 45 1011.4
20260906061506 85 171 8.0 15.0 0.00 0.00 0.00 45 1011.5
20260906061005 85 167 7.0 15.0 0.00 0.00 0.00 45 1011.5
20260906060005 85 182 6.0 14.0 0.00 0.00 0.00 45 1011.6
20260906055505 86 175 7.0 14.0 0.00 0.00 0.00 45 1011.7
20260906055006 86 172 6.0 13.0 0.00 0.00 0.00 45 1011.6
20260906054005 86 161 6.0 12.0 0.00 0.00 0.00 45 1011.6
20260906053506 86 166 6.0 12.0 0.00 0.00 0.00 45 1011.6
20260906053005 86 158 6.0 14.0 0.00 0.00 0.00 45 1011.4
20260906052506 86 164 7.0 14.0 0.00 0.00 0.00 45 1011.4
20260906052006 86 161 7.0 13.0 0.00 0.00 0.00 45 1011.5
20260906051506 86 153 6.0 13.0 0.00 0.00 0.00 45 1011.5
20260906051005 86 156 6.0 12.0 0.00 0.00 0.00 45 1011.5
20260906050506 86 159 6.0 12.0 0.00 0.00 0.00 46 1011.5
20260906050006 86 153 6.0 12.0 0.00 0.00 0.00 46 1011.6
20260906045505 86 161 6.0 12.0 0.00 0.00 0.00 45 1011.6
20260906045006 85 149 6.0 10.0 0.00 0.00 0.00 45 1011.5
20260906044505 85 158 5.0 9.0 0.00 0.00 0.00 45 1011.5
20260906044006 86 153 5.0 7.0 0.00 0.00 0.00 45 1011.5
20260906043506 86 143 5.0 7.0 0.00 0.00 0.00 44 1011.5
20260906043005 86 146 5.0 9.0 0.00 0.00 0.00 44 1011.5
20260906042505 86 149 5.0 9.0 0.00 0.00 0.00 44 1011.5
20260906042005 86 145 3.0 7.0 0.00 0.00 0.00 44 1011.4
20260906041506 87 138 5.0 7.0 0.00 0.00 0.00 43 1011.4
20260906041005 87 126 3.0 7.0 0.00 0.00 0.00 43 1011.4
20260906040005 87 121 3.0 5.0 0.00 0.00 0.00 42 1011.4
20260906034006 88 123 3.0 6.0 0.00 0.00 0.00 42 1011.1
20260906033506 88 130 3.0 7.0 0.00 0.00 0.00 42 1011.0
20260906033005 88 121 5.0 7.0 0.00 0.00 0.00 42 1010.9
20260906032505 88 121 3.0 7.0 0.00 0.00 0.00 42 1010.9
20260906032005 88 123 3.0 7.0 0.00 0.00 0.00 41 1011.0
20260906030506 89 141 3.0 6.0 0.00 0.00 0.00 40 1010.6
20260906030005 89 136 3.0 9.0 0.00 0.00 0.00 40 1010.5
20260906025005 89 126 3.0 9.0 0.00 0.00 0.00 39 1010.3
20260906024005 90 126 3.0 6.0 0.00 0.00 0.00 39 1010.1
20260906023506 90 140 3.0 6.0 0.00 0.00 0.00 39 1010.2
20260906023005 90 138 3.0 6.0 0.00 0.00 0.00 38 1010.1
20260906022006 91 129 3.0 6.0 0.00 0.00 0.00 37 1010.0
20260906021005 91 125 3.0 6.0 0.00 0.00 0.00 37 1009.8
20260906020506 91 122 3.0 9.0 0.00 0.00 0.00 37 1009.7
20260906020005 92 119 5.0 9.0 0.00 0.00 0.00 36 1009.7
20260906015005 92 135 3.0 7.0 0.00 0.00 0.00 36 1009.7
20260906014506 92 140 3.0 9.0 0.00 0.00 0.00 36 1009.6
20260906014005 92 143 5.0 9.0 0.00 0.00 0.00 36 1009.4
20260906013505 93 145 5.0 12.0 0.00 0.00 0.00 35 1009.4
20260906013005 93 146 5.0 12.0 0.00 0.00 0.00 35 1009.4
20260906012006 93 132 6.0 10.0 0.00 0.00 0.00 35 1009.2
20260906011505 94 123 5.0 12.0 0.00 0.00 0.00 35 1009.1
20260906010505 94 130 6.0 13.0 0.00 0.00 0.00 34 1009.1
20260906005505 95 131 6.0 10.0 0.00 0.00 0.00 33 1009.0
20260906005006 95 122 6.0 12.0 0.00 0.00 0.00 33 1008.9
20260906004505 95 128 7.0 13.0 0.00 0.00 0.00 33 1008.8
20260906004005 96 129 6.0 13.0 0.00 0.00 0.00 33 1008.9
20260906003505 96 155 6.0 13.0 0.00 0.00 0.00 33 1008.8
20260906003005 96 141 5.0 12.0 0.00 0.00 0.00 33 1008.8
20260906002505 96 136 4.0 12.0 0.00 0.00 0.00 32 1008.7
20260906002005 97 124 6.0 14.0 0.00 0.00 0.00 32 1008.8
20260906001505 97 130 7.0 14.0 0.00 0.00 0.00 32 1008.7
20260906001005 97 127 6.0 12.0 0.00 0.00 0.00 32 1008.6
20260906000505 97 155 6.0 13.0 0.00 0.00 0.00 33 1008.7
20260905235505 97 138 7.0 13.0 0.00 0.00 0.00 32 1008.6
20260905235005 98 137 5.0 10.0 0.00 0.00 0.00 32 1008.4
20260905234505 98 130 5.0 9.0 0.00 0.00 0.00 32 1008.4
20260905234005 98 148 6.0 12.0 0.00 0.00 0.00 32 1008.4
20260905233504 98 128 8.0 14.0 0.00 0.00 0.00 32 1008.4
20260905232505 99 125 7.0 13.0 0.00 0.00 0.00 32 1008.3
20260905232005 99 108 8.0 14.0 0.00 0.00 0.00 32 1008.2
20260905231505 99 115 7.0 15.0 0.00 0.00 0.00 32 1008.2
20260905230004 99 113 8.0 15.0 0.00 0.00 0.00 31 1008.2
20260905225504 99 136 6.0 13.0 0.00 0.00 0.00 31 1008.3
20260905225005 100 153 3.0 13.0 0.00 0.00 0.00 30 1008.4
20260905224505 100 179 6.0 16.0 0.00 0.00 0.00 30 1008.3
20260905224005 100 127 7.0 16.0 0.00 0.00 0.00 30 1008.3
20260905223505 100 128 3.0 12.0 0.00 0.00 0.00 30 1008.3
20260905223005 100 200 3.0 12.0 0.00 0.00 0.00 30 1008.3
20260905222505 100 179 6.0 13.0 0.00 0.00 0.00 30 1008.3
20260905221505 100 132 7.0 14.0 0.00 0.00 0.00 30 1008.3
20260905221005 100 166 6.0 12.0 0.00 0.00 0.00 30 1008.3
20260905220505 100 160 5.0 12.0 0.00 0.00 0.00 30 1008.4
20260905220005 99 115 5.0 12.0 0.00 0.00 0.00 31 1008.3
20260905215505 99 85 5.0 9.0 0.00 0.00 0.00 30 1008.4
20260905215005 99 139 7.0 12.0 0.00 0.00 0.00 30 1008.5
20260905214505 100 133 7.0 14.0 0.00 0.00 0.00 30 1008.5